Regional Weather Roundup
Issued by NWS

Current Version | Previous Version | Text Only | Print | Product List | Glossary On
Versions: 1 2 3 4 5 6 7 8 9 10 11 12 13 14 15 16 17 18 19 20 21 22 23 24 25 26 27 28 29 30 31 32 33 34 35 36 37 38 39 40 41 42 43 44 45 46 47 48 49 50
000
ASCA42 TJSJ 311310
RWRPR
PUERTO RICO/U.S. VIRGIN ISLANDS HOURLY WEATHER ROUNDUP
NATIONAL WEATHER SERVICE SAN JUAN PR
900 AM AST FRI JUL 31 2015

PRZ001-004-311400-
PUERTO RICO

CITY           SKY/WX    TMP DP  RH WIND       PRES   REMARKS
SAN JUAN LMM   MOSUNNY   86  77  74 E18G25    30.07R HX  97
PONCE          MOSUNNY   90  73  58 E12       30.00R HX  98
AGUADILLA      SUNNY     82  73  74 E13       30.08R
$$

PRZ006-007-311400-
U.S. VIRGIN ISLANDS

CITY           SKY/WX    TMP DP  RH WIND       PRES   REMARKS
CHARLOTTE AMA  PTSUNNY   86  77  74 E12       30.07R HX  97
CHRISTIANSTED  MOSUNNY   88  73  62 E17       30.07R HX  96
$$

HOURLY WEATHER ROUNDUP FOR THE NEWS MEDIA

CITY           SKY/WX    TMP DP  RH WIND       PRES   REMARKS
ORLANDO        MOSUNNY   79  76  90 S6        30.01R
NEW YORK       MOSUNNY   82  59  45 NW8       29.88S
NEWARK         MOSUNNY   80  61  52 W5        29.88S
CHICAGO        PTSUNNY   73  60  63 W13       30.03R
HARTFORD       SUNNY     78  68  71 W9        29.82S
BOSTON         MOSUNNY   80  63  55 W10       29.80F
DALLAS         SUNNY     83  72  69 E8        30.08R
PHILADELPHIA   SUNNY     80  58  46 NW9       29.91S
LOS ANGELES    MOCLDY    68  65  90 W3        30.02R
WASHINGTON DC  SUNNY     76  62  62 NW8       29.97S


USA.gov is the U.S. government's official web portal to all federal, state and local government web resources and services.